User: anonymous   Login
Location: Jetmore Oil Field
(38.1181°N, 99.9337°W)
Time: 23:48:24
(UTC+00:00)
Language:

STARLINK-2732 - Orbit

View from above orbital plane
View from above orbital plane
View from above satellite
View from above satellite

Ground track
Ground track

The orbit data is extracted from the following two-line orbital elements,

1 48646C 21044J   21271.86144700  .00001527  00000-0  10227-3 0  2715
2 48646  53.0529 206.7653 0001681  53.3346 334.3207 15.06402857    14
Epoch (UTC): 28 September 2021 20:40:29
Eccentricity: 0.0001681
inclination: 53.0529°
perigee height: 546 km
apogee height: 548 km
right ascension of ascending node: 206.7653°
argument of perigee: 53.3346°
revolutions per day: 15.06402857
mean anomaly at epoch: 334.3207°
orbit number at epoch: 1

The dashed part of the orbit path shows where the satellite is in the earth's shadow,  

DLR